{"data":{"norad_id":51144,"epoch":"2026-05-24T21:10:49.874016Z","epoch_age_seconds":88250,"freshness":"FRESH","line1":"1 51144U 22005AS  26144.88252169  .00000066  00000+0  22220-4 0  9995","line2":"2 51144  53.2160 317.0859 0001333  92.8596 267.2549 15.08843833240246","mean_motion":15.08843833,"eccentricity":0.0001333,"inclination_deg":53.216,"raan_deg":317.0859,"arg_perigee_deg":92.8596,"mean_anomaly_deg":267.2549,"bstar":2.222e-5,"rev_number":24024,"period_min":95.437312232432,"perigee_km":538.8095211472,"apogee_km":540.65382493544,"semimajor_km":6917.8686730413,"source":"CELESTRAK","updated_at":"2026-05-25T13:38:16.915332Z"}}